Location: Berlin
(52.5171°N, 13.3759°E)
Time: 15:57:21
(UTC+01:00)

ISS - Visible Passes

Search period start: 23 November 2017 00:00
Search period end: 03 December 2017 00:00
Orbit: 402 x 407 km, 51.6° (Epoch: 24 November)

Date Brightness Start Highest point End Pass type
(mag) Time Alt. Az. Time Alt. Az. Time Alt. Az.
28 Nov -1.3 18:17:10 10° S 18:17:50 13° S 18:17:50 13° S visible
29 Nov -1.3 17:27:03 10° SE 17:27:08 10° SE 17:27:14 10° SE visible
29 Nov -0.9 18:59:51 10° SW 19:00:25 14° SW 19:00:25 14° SW visible
30 Nov -2.3 18:07:51 10° SSW 18:10:15 25° SSE 18:10:15 25° SSE visible
01 Dec -1.8 17:16:09 10° S 17:18:28 18° SE 17:20:01 14° ESE visible
01 Dec -1.5 18:51:15 10° WSW 18:52:40 23° SW 18:52:40 23° SW visible
02 Dec -3.2 17:59:01 10° SW 18:02:08 41° SSE 18:02:23 40° SE visible
